STARLINK-34087

Last updated on Mon Jun 16 2025 00:02:04 GMT+0000 (Coordinated Universal Time)

1 64024U 25102C 25166.46091001 .00034451 00000+0 78652-3 0 9994 2 64024 70.0027 72.2417 0002978 270.7003 89.3837 15.42714168 5712
UTC large
Height (km)
Speed (km/s)
/
Latitude / Longitude
Inclination (degrees)
Orbital Period (minutes)
Azimuth
Elevation
Range (km)
Doppler Factor

Next 0 passes for location: London (51.5072 / 0.1276)

Sorry there are no passes over London.